TimeCDT,TemperatureF,Dew PointF,Humidity,Sea Level PressureIn,VisibilityMPH,Wind Direction,Wind SpeedMPH,Gust SpeedMPH,PrecipitationIn,Events,Conditions,WindDirDegrees,DateUTC
12:06 AM,44.6,42.8,93,29.99,2.0,Calm,Calm,-,N/A,,Clear,0,2013-09-26 05:06:00
12:27 AM,50.0,48.2,94,29.99,7.0,ESE,3.5,-,N/A,,Mostly Cloudy,110,2013-09-26 05:27:00
12:46 AM,50.0,48.2,94,29.98,3.0,Calm,Calm,-,N/A,,Overcast,0,2013-09-26 05:46:00
1:07 AM,51.8,51.8,100,29.98,4.0,Calm,Calm,-,N/A,,Overcast,0,2013-09-26 06:07:00
1:27 AM,51.8,51.8,100,29.98,5.0,Calm,Calm,-,N/A,,Overcast,0,2013-09-26 06:27:00
1:46 AM,51.8,51.8,100,29.99,7.0,ESE,4.6,-,N/A,,Overcast,120,2013-09-26 06:46:00
2:07 AM,51.8,51.8,100,29.99,7.0,SE,4.6,-,N/A,,Overcast,130,2013-09-26 07:07:00
2:27 AM,51.8,51.8,100,29.99,7.0,ESE,3.5,-,N/A,,Overcast,120,2013-09-26 07:27:00
2:46 AM,51.8,51.8,100,29.99,7.0,SE,6.9,-,N/A,,Overcast,130,2013-09-26 07:46:00
3:07 AM,51.8,50.0,94,29.98,7.0,SE,6.9,-,N/A,,Overcast,130,2013-09-26 08:07:00
3:27 AM,51.8,50.0,94,29.98,7.0,SE,4.6,-,N/A,,Overcast,130,2013-09-26 08:27:00
3:47 AM,51.8,50.0,94,29.98,7.0,ESE,4.6,-,N/A,,Overcast,120,2013-09-26 08:47:00
4:07 AM,51.8,50.0,94,29.98,7.0,SE,4.6,-,N/A,,Overcast,130,2013-09-26 09:07:00
4:27 AM,51.8,50.0,94,29.98,7.0,ESE,4.6,-,N/A,,Overcast,110,2013-09-26 09:27:00
4:47 AM,51.8,50.0,94,29.98,7.0,Calm,Calm,-,N/A,,Overcast,0,2013-09-26 09:47:00
5:07 AM,51.8,50.0,94,29.98,7.0,SE,3.5,-,N/A,,Overcast,130,2013-09-26 10:07:00
5:27 AM,51.8,50.0,94,29.98,7.0,ESE,3.5,-,N/A,,Overcast,120,2013-09-26 10:27:00
5:47 AM,51.8,50.0,94,29.98,7.0,Calm,Calm,-,N/A,,Overcast,0,2013-09-26 10:47:00
6:07 AM,51.8,50.0,94,29.98,7.0,East,3.5,-,N/A,,Overcast,100,2013-09-26 11:07:00
6:27 AM,51.8,50.0,94,29.98,5.0,Calm,Calm,-,N/A,,Mostly Cloudy,0,2013-09-26 11:27:00
6:47 AM,51.8,51.8,100,29.98,4.0,Calm,Calm,-,N/A,,Overcast,0,2013-09-26 11:47:00
7:06 AM,51.8,51.8,100,29.98,5.0,East,3.5,-,N/A,,Overcast,90,2013-09-26 12:06:00
7:27 AM,51.8,51.8,100,29.99,4.0,ESE,3.5,-,N/A,,Overcast,120,2013-09-26 12:27:00
7:47 AM,51.8,51.8,100,29.99,4.0,SE,6.9,-,N/A,,Overcast,130,2013-09-26 12:47:00
8:06 AM,51.8,50.0,94,29.99,5.0,ESE,6.9,-,N/A,,Overcast,120,2013-09-26 13:06:00
8:27 AM,51.8,50.0,94,29.98,7.0,ESE,6.9,-,N/A,,Scattered Clouds,120,2013-09-26 13:27:00
8:47 AM,53.6,51.8,94,29.98,10.0,SE,8.1,-,N/A,,Clear,140,2013-09-26 13:47:00
9:06 AM,57.2,51.8,82,29.98,10.0,SE,10.4,-,N/A,,Clear,130,2013-09-26 14:06:00
9:27 AM,57.2,50.0,77,29.98,10.0,SE,8.1,-,N/A,,Clear,140,2013-09-26 14:27:00
9:47 AM,59.0,51.8,77,29.98,10.0,SE,9.2,-,N/A,,Clear,140,2013-09-26 14:47:00
10:06 AM,59.0,50.0,72,29.98,10.0,SSE,10.4,-,N/A,,Clear,150,2013-09-26 15:06:00
10:27 AM,62.6,51.8,68,29.98,10.0,SE,12.7,-,N/A,,Clear,140,2013-09-26 15:27:00
10:47 AM,62.6,50.0,63,29.97,10.0,SE,10.4,-,N/A,,Clear,140,2013-09-26 15:47:00
11:07 AM,62.6,51.8,68,29.97,10.0,SE,11.5,-,N/A,,Clear,140,2013-09-26 16:07:00
11:27 AM,64.4,51.8,64,29.96,10.0,SSE,12.7,18.4,N/A,,Clear,150,2013-09-26 16:27:00
11:47 AM,64.4,51.8,64,29.96,10.0,South,15.0,19.6,N/A,,Clear,170,2013-09-26 16:47:00
12:07 PM,68.0,51.8,56,29.95,10.0,SSE,11.5,18.4,N/A,,Clear,160,2013-09-26 17:07:00
12:27 PM,68.0,51.8,56,29.95,10.0,SE,10.4,18.4,N/A,,Clear,140,2013-09-26 17:27:00
12:47 PM,66.2,51.8,60,29.95,10.0,SSE,10.4,-,N/A,,Scattered Clouds,150,2013-09-26 17:47:00
1:07 PM,69.8,53.6,56,29.94,10.0,SE,16.1,23.0,N/A,,Scattered Clouds,140,2013-09-26 18:07:00
1:27 PM,69.8,53.6,56,29.93,10.0,SE,11.5,19.6,N/A,,Clear,140,2013-09-26 18:27:00
1:47 PM,71.6,55.4,57,29.93,10.0,SE,12.7,20.7,N/A,,Clear,140,2013-09-26 18:47:00
2:07 PM,71.6,55.4,57,29.93,10.0,SSE,13.8,19.6,N/A,,Clear,150,2013-09-26 19:07:00
2:27 PM,71.6,55.4,57,29.92,10.0,SSE,12.7,21.9,N/A,,Clear,150,2013-09-26 19:27:00
2:47 PM,71.6,55.4,57,29.92,10.0,SE,16.1,23.0,N/A,,Clear,130,2013-09-26 19:47:00
3:07 PM,71.6,53.6,53,29.92,10.0,SE,17.3,24.2,N/A,,Clear,140,2013-09-26 20:07:00
3:27 PM,71.6,55.4,57,29.92,10.0,SSE,12.7,21.9,N/A,,Clear,150,2013-09-26 20:27:00
3:47 PM,71.6,55.4,57,29.91,10.0,SSE,18.4,24.2,N/A,,Clear,150,2013-09-26 20:47:00
4:07 PM,71.6,55.4,57,29.91,10.0,SE,15.0,21.9,N/A,,Clear,140,2013-09-26 21:07:00
4:26 PM,71.6,55.4,57,29.91,10.0,SE,10.4,-,N/A,,Clear,140,2013-09-26 21:26:00
4:47 PM,69.8,53.6,56,29.91,10.0,SE,13.8,19.6,N/A,,Clear,140,2013-09-26 21:47:00
5:06 PM,69.8,53.6,56,29.91,10.0,SE,16.1,-,N/A,,Clear,140,2013-09-26 22:06:00
5:27 PM,68.0,51.8,56,29.90,10.0,SE,15.0,21.9,N/A,,Clear,130,2013-09-26 22:27:00
5:47 PM,68.0,53.6,60,29.90,10.0,SE,13.8,17.3,N/A,,Clear,130,2013-09-26 22:47:00
6:06 PM,64.4,51.8,64,29.91,10.0,SE,13.8,18.4,N/A,,Clear,140,2013-09-26 23:06:00
6:27 PM,64.4,53.6,68,29.91,10.0,SE,8.1,-,N/A,,Clear,130,2013-09-26 23:27:00
6:46 PM,62.6,51.8,68,29.91,10.0,ESE,6.9,-,N/A,,Clear,120,2013-09-26 23:46:00
7:07 PM,62.6,53.6,72,29.91,10.0,ESE,3.5,-,N/A,,Clear,110,2013-09-27 00:07:00
7:27 PM,59.0,51.8,77,29.92,10.0,ESE,6.9,-,N/A,,Clear,120,2013-09-27 00:27:00
7:47 PM,59.0,51.8,77,29.92,10.0,ESE,8.1,-,N/A,,Clear,120,2013-09-27 00:47:00
8:07 PM,59.0,51.8,77,29.92,10.0,ESE,4.6,16.1,N/A,,Clear,110,2013-09-27 01:07:00
8:27 PM,59.0,50.0,72,29.95,10.0,SE,4.6,-,N/A,,Clear,130,2013-09-27 01:27:00
8:46 PM,57.2,50.0,77,29.95,10.0,Calm,Calm,-,N/A,,Clear,0,2013-09-27 01:46:00
9:07 PM,57.2,51.8,82,29.96,10.0,East,3.5,-,N/A,,Clear,80,2013-09-27 02:07:00
9:27 PM,53.6,50.0,88,29.96,10.0,ENE,3.5,-,N/A,,Clear,70,2013-09-27 02:27:00
9:47 PM,53.6,50.0,88,29.96,10.0,ENE,3.5,-,N/A,,Clear,60,2013-09-27 02:47:00
10:07 PM,51.8,48.2,88,29.96,10.0,ENE,3.5,-,N/A,,Clear,60,2013-09-27 03:07:00
10:27 PM,51.8,50.0,94,29.96,10.0,NE,3.5,-,N/A,,Clear,50,2013-09-27 03:27:00
10:47 PM,51.8,50.0,94,29.96,10.0,NE,4.6,-,N/A,,Clear,50,2013-09-27 03:47:00
11:07 PM,51.8,50.0,94,29.96,10.0,NE,3.5,-,N/A,,Clear,50,2013-09-27 04:07:00
11:26 PM,51.8,50.0,94,29.96,10.0,Calm,Calm,-,N/A,,Clear,0,2013-09-27 04:26:00
11:47 PM,51.8,50.0,94,29.96,10.0,Calm,Calm,-,N/A,,Clear,0,2013-09-27 04:47:00